Time,TemperatureF,DewpointF,PressureIn,WindDirection,WindDirectionDegrees,WindSpeedMPH,WindSpeedGustMPH,Humidity,HourlyPrecipIn,Conditions,Clouds,dailyrainin,SolarRadiationWatts/m^2,SoftwareType,DateUTC
2013-03-04 00:00:00,23.1,16.7,30.01,West,273,3.0,4.0,76,0.00,,,0.01,0,Wunderground v.1.15,2013-03-04 05:00:00,
2013-03-04 00:02:00,23.1,16.7,30.01,WNW,292,4.0,4.0,76,0.00,,,0.01,0,Wunderground v.1.15,2013-03-04 05:02:00,
2013-03-04 00:04:00,23.1,16.7,30.01,WSW,238,4.0,4.0,76,0.00,,,0.01,0,Wunderground v.1.15,2013-03-04 05:04:00,
2013-03-04 00:06:00,23.1,16.7,30.01,NW,306,3.0,4.0,76,0.00,,,0.00,0,Wunderground v.1.15,2013-03-04 05:06:00,
2013-03-04 00:12:00,23.0,16.9,30.01,WNW,296,2.0,3.0,77,0.00,,,0.00,0,Wunderground v.1.15,2013-03-04 05:12:00,
2013-03-04 00:18:00,22.9,17.1,30.02,West,266,2.0,3.0,78,0.00,,,0.00,0,Wunderground v.1.15,2013-03-04 05:18:00,
2013-03-04 00:24:00,22.9,17.1,30.01,SW,223,2.0,6.0,78,0.00,,,0.00,0,Wunderground v.1.15,2013-03-04 05:24:00,
2013-03-04 00:30:00,22.7,16.9,30.01,WSW,254,4.0,4.0,78,0.00,,,0.00,0,Wunderground v.1.15,2013-03-04 05:30:00,
2013-03-04 00:36:00,22.7,16.9,30.02,WNW,292,3.0,9.0,78,0.00,,,0.00,0,Wunderground v.1.15,2013-03-04 05:36:00,
2013-03-04 00:42:00,22.6,16.8,30.02,WNW,293,3.0,9.0,78,0.00,,,0.00,0,Wunderground v.1.15,2013-03-04 05:42:00,
2013-03-04 00:48:00,22.5,16.7,30.02,WSW,252,3.0,9.0,78,0.00,,,0.00,0,Wunderground v.1.15,2013-03-04 05:48:00,
2013-03-04 00:54:00,22.5,16.7,30.01,SW,227,2.0,9.0,78,0.00,,,0.00,0,Wunderground v.1.15,2013-03-04 05:54:00,
2013-03-04 01:00:00,22.4,16.6,30.01,West,270,2.0,9.0,78,0.00,,,0.00,0,Wunderground v.1.15,2013-03-04 06:00:00,
2013-03-04 01:06:00,22.3,16.5,30.02,WNW,287,2.0,9.0,78,0.00,,,0.00,0,Wunderground v.1.15,2013-03-04 06:06:00,
2013-03-04 01:12:00,22.3,16.5,30.02,SW,219,2.0,5.0,78,0.00,,,0.00,0,Wunderground v.1.15,2013-03-04 06:12:00,
2013-03-04 01:18:00,22.2,16.4,30.02,NNW,338,3.0,9.0,78,0.00,,,0.00,0,Wunderground v.1.15,2013-03-04 06:18:00,
2013-03-04 01:24:00,22.2,16.1,30.02,SW,228,2.0,9.0,77,0.00,,,0.00,0,Wunderground v.1.15,2013-03-04 06:24:00,
2013-03-04 01:30:00,22.2,16.1,30.02,SSW,200,2.0,9.0,77,0.00,,,0.00,0,Wunderground v.1.15,2013-03-04 06:30:00,
2013-03-04 01:36:00,22.2,16.1,30.03,NW,307,2.0,9.0,77,0.00,,,0.00,0,Wunderground v.1.15,2013-03-04 06:36:00,
2013-03-04 01:42:00,22.2,16.1,30.03,WSW,247,3.0,9.0,77,0.00,,,0.00,0,Wunderground v.1.15,2013-03-04 06:42:00,
2013-03-04 01:48:00,22.1,16.0,30.02,NNW,342,4.0,9.0,77,0.00,,,0.00,0,Wunderground v.1.15,2013-03-04 06:48:00,
2013-03-04 01:54:00,22.2,16.1,30.03,West,280,3.0,9.0,77,0.00,,,0.00,0,Wunderground v.1.15,2013-03-04 06:54:00,
2013-03-04 02:00:00,22.1,16.0,30.02,West,279,3.0,9.0,77,0.00,,,0.00,0,Wunderground v.1.15,2013-03-04 07:00:00,
2013-03-04 02:06:00,22.1,16.3,30.02,SW,219,3.0,9.0,78,0.00,,,0.00,0,Wunderground v.1.15,2013-03-04 07:06:00,
2013-03-04 02:12:00,22.1,16.3,30.02,West,268,2.0,5.0,78,0.00,,,0.00,0,Wunderground v.1.15,2013-03-04 07:12:00,
2013-03-04 02:18:00,22.1,16.3,30.02,West,271,3.0,9.0,78,0.00,,,0.00,0,Wunderground v.1.15,2013-03-04 07:18:00,
2013-03-04 02:24:00,22.1,16.6,30.02,WSW,253,2.0,9.0,79,0.00,,,0.00,0,Wunderground v.1.15,2013-03-04 07:24:00,
2013-03-04 02:30:00,22.1,16.6,30.02,WNW,296,2.0,9.0,79,0.00,,,0.00,0,Wunderground v.1.15,2013-03-04 07:30:00,
2013-03-04 02:36:00,22.1,16.6,30.03,NW,318,3.0,9.0,79,0.00,,,0.00,0,Wunderground v.1.15,2013-03-04 07:36:00,
2013-03-04 02:42:00,22.1,16.6,30.02,West,266,3.0,9.0,79,0.00,,,0.00,0,Wunderground v.1.15,2013-03-04 07:42:00,
2013-03-04 02:48:00,22.1,16.6,30.02,NNW,327,2.0,9.0,79,0.00,,,0.00,0,Wunderground v.1.15,2013-03-04 07:48:00,
2013-03-04 02:54:00,22.1,16.6,30.02,NW,304,3.0,9.0,79,0.00,,,0.00,0,Wunderground v.1.15,2013-03-04 07:54:00,
2013-03-04 03:00:00,22.1,16.6,30.03,WNW,286,4.0,9.0,79,0.00,,,0.00,0,Wunderground v.1.15,2013-03-04 08:00:00,
2013-03-04 03:06:00,22.1,16.6,30.03,NNW,342,3.0,9.0,79,0.00,,,0.00,0,Wunderground v.1.15,2013-03-04 08:06:00,
2013-03-04 03:12:00,22.1,16.6,30.02,WNW,289,3.0,9.0,79,0.00,,,0.00,0,Wunderground v.1.15,2013-03-04 08:12:00,
2013-03-04 03:18:00,22.1,16.9,30.03,NW,304,1.0,9.0,80,0.00,,,0.00,0,Wunderground v.1.15,2013-03-04 08:18:00,
2013-03-04 03:24:00,22.0,16.8,30.03,WNW,294,1.0,9.0,80,0.00,,,0.00,0,Wunderground v.1.15,2013-03-04 08:24:00,
2013-03-04 03:30:00,22.0,16.8,30.03,SW,223,3.0,9.0,80,0.00,,,0.00,0,Wunderground v.1.15,2013-03-04 08:30:00,
2013-03-04 03:36:00,22.0,16.8,30.03,West,281,4.0,9.0,80,0.00,,,0.00,0,Wunderground v.1.15,2013-03-04 08:36:00,
2013-03-04 03:42:00,22.0,16.8,30.03,West,265,2.0,9.0,80,0.00,,,0.00,0,Wunderground v.1.15,2013-03-04 08:42:00,
2013-03-04 03:48:00,22.0,16.8,30.03,WSW,250,1.0,9.0,80,0.00,,,0.00,0,Wunderground v.1.15,2013-03-04 08:48:00,
2013-03-04 03:54:00,22.0,16.5,30.03,North,5,3.0,9.0,79,0.00,,,0.00,0,Wunderground v.1.15,2013-03-04 08:54:00,
2013-03-04 04:00:00,22.0,16.5,30.03,West,277,3.0,3.0,79,0.00,,,0.00,0,Wunderground v.1.15,2013-03-04 09:00:00,
2013-03-04 04:06:00,22.1,16.6,30.03,NW,309,3.0,9.0,79,0.00,,,0.00,0,Wunderground v.1.15,2013-03-04 09:06:00,
2013-03-04 04:12:00,22.0,16.5,30.04,NW,326,4.0,9.0,79,0.00,,,0.00,0,Wunderground v.1.15,2013-03-04 09:12:00,
2013-03-04 04:18:00,22.0,16.5,30.04,NW,320,4.0,9.0,79,0.00,,,0.00,0,Wunderground v.1.15,2013-03-04 09:18:00,
2013-03-04 04:24:00,22.0,16.5,30.04,NNW,342,4.0,9.0,79,0.00,,,0.00,0,Wunderground v.1.15,2013-03-04 09:24:00,
2013-03-04 04:30:00,22.0,16.5,30.05,West,276,3.0,3.0,79,0.00,,,0.00,0,Wunderground v.1.15,2013-03-04 09:30:00,
2013-03-04 04:36:00,21.9,16.4,30.05,NNW,327,4.0,9.0,79,0.00,,,0.00,0,Wunderground v.1.15,2013-03-04 09:36:00,
2013-03-04 04:42:00,21.8,16.0,30.05,West,268,4.0,9.0,78,0.00,,,0.00,0,Wunderground v.1.15,2013-03-04 09:42:00,
2013-03-04 04:48:00,21.8,16.0,30.05,WNW,289,4.0,9.0,78,0.00,,,0.00,0,Wunderground v.1.15,2013-03-04 09:48:00,
2013-03-04 04:54:00,21.8,16.0,30.05,NNW,345,3.0,9.0,78,0.00,,,0.00,0,Wunderground v.1.15,2013-03-04 09:54:00,
2013-03-04 05:00:00,21.7,15.9,30.05,WNW,299,3.0,9.0,78,0.00,,,0.00,0,Wunderground v.1.15,2013-03-04 10:00:00,
2013-03-04 05:06:00,21.7,15.9,30.06,NNW,342,3.0,9.0,78,0.00,,,0.00,0,Wunderground v.1.15,2013-03-04 10:06:00,
2013-03-04 05:12:00,21.7,15.9,30.06,WNW,296,3.0,9.0,78,0.00,,,0.00,0,Wunderground v.1.15,2013-03-04 10:12:00,
2013-03-04 05:18:00,21.7,16.2,30.06,NNW,327,3.0,9.0,79,0.00,,,0.00,0,Wunderground v.1.15,2013-03-04 10:18:00,
2013-03-04 05:24:00,21.7,16.2,30.06,NNW,340,3.0,5.0,79,0.00,,,0.00,0,Wunderground v.1.15,2013-03-04 10:24:00,
2013-03-04 05:30:00,21.6,16.4,30.06,WSW,256,3.0,3.0,80,0.00,,,0.00,0,Wunderground v.1.15,2013-03-04 10:30:00,
2013-03-04 05:36:00,21.6,16.7,30.06,WNW,290,3.0,9.0,81,0.00,,,0.00,0,Wunderground v.1.15,2013-03-04 10:36:00,
2013-03-04 05:42:00,21.5,16.6,30.06,NW,307,3.0,9.0,81,0.00,,,0.00,0,Wunderground v.1.15,2013-03-04 10:42:00,
2013-03-04 05:48:00,21.6,16.4,30.06,WNW,295,3.0,9.0,80,0.00,,,0.00,0,Wunderground v.1.15,2013-03-04 10:48:00,
2013-03-04 05:54:00,21.6,16.7,30.06,NW,313,4.0,9.0,81,0.00,,,0.00,0,Wunderground v.1.15,2013-03-04 10:54:00,
2013-03-04 06:00:00,21.6,16.7,30.06,WNW,287,2.0,9.0,81,0.00,,,0.00,0,Wunderground v.1.15,2013-03-04 11:00:00,
2013-03-04 06:06:00,21.5,16.9,30.06,NW,314,3.0,9.0,82,0.00,,,0.00,0,Wunderground v.1.15,2013-03-04 11:06:00,
2013-03-04 06:12:00,21.5,17.1,30.07,West,280,2.0,9.0,83,0.00,,,0.00,0,Wunderground v.1.15,2013-03-04 11:12:00,
2013-03-04 06:18:00,21.4,17.0,30.07,SW,235,3.0,9.0,83,0.00,,,0.00,0,Wunderground v.1.15,2013-03-04 11:18:00,
2013-03-04 06:24:00,21.3,16.9,30.07,SW,222,3.0,9.0,83,0.00,,,0.00,0,Wunderground v.1.15,2013-03-04 11:24:00,
2013-03-04 06:30:00,21.3,16.7,30.07,West,261,3.0,9.0,82,0.00,,,0.00,0,Wunderground v.1.15,2013-03-04 11:30:00,
2013-03-04 06:36:00,21.3,16.9,30.07,WNW,298,3.0,9.0,83,0.00,,,0.00,0,Wunderground v.1.15,2013-03-04 11:36:00,
2013-03-04 06:42:00,21.3,16.9,30.07,West,273,2.0,4.0,83,0.00,,,0.00,0,Wunderground v.1.15,2013-03-04 11:42:00,
2013-03-04 06:48:00,21.3,16.9,30.07,WNW,287,3.0,9.0,83,0.00,,,0.00,5,Wunderground v.1.15,2013-03-04 11:48:00,
2013-03-04 06:54:00,21.3,16.9,30.08,WNW,293,3.0,9.0,83,0.00,,,0.00,7,Wunderground v.1.15,2013-03-04 11:54:00,
2013-03-04 07:00:00,21.3,16.9,30.08,WSW,243,2.0,9.0,83,0.00,,,0.00,11,Wunderground v.1.15,2013-03-04 12:00:00,
2013-03-04 07:06:00,21.3,17.2,30.08,North,351,2.0,9.0,84,0.00,,,0.00,14,Wunderground v.1.15,2013-03-04 12:06:00,
2013-03-04 07:12:00,21.3,17.2,30.08,WSW,243,2.0,9.0,84,0.00,,,0.00,21,Wunderground v.1.15,2013-03-04 12:12:00,
2013-03-04 07:18:00,21.4,17.6,30.09,West,272,2.0,9.0,85,0.00,,,0.00,25,Wunderground v.1.15,2013-03-04 12:18:00,
2013-03-04 07:24:00,21.4,17.6,30.08,SW,221,2.0,9.0,85,0.00,,,0.00,39,Wunderground v.1.15,2013-03-04 12:24:00,
2013-03-04 07:30:00,21.5,17.7,30.09,WSW,252,2.0,9.0,85,0.00,,,0.00,44,Wunderground v.1.15,2013-03-04 12:30:00,
2013-03-04 07:36:00,21.6,17.8,30.09,WSW,246,3.0,9.0,85,0.00,,,0.00,56,Wunderground v.1.15,2013-03-04 12:36:00,
2013-03-04 07:42:00,21.7,17.6,30.09,West,261,2.0,9.0,84,0.00,,,0.00,62,Wunderground v.1.15,2013-03-04 12:42:00,
2013-03-04 07:48:00,21.9,17.8,30.09,West,270,2.0,9.0,84,0.00,,,0.00,67,Wunderground v.1.15,2013-03-04 12:48:00,
2013-03-04 07:54:00,22.0,17.9,30.09,West,271,2.0,9.0,84,0.00,,,0.00,81,Wunderground v.1.15,2013-03-04 12:54:00,
2013-03-04 08:00:00,22.2,17.8,30.09,NW,323,2.0,2.0,83,0.00,,,0.00,90,Wunderground v.1.15,2013-03-04 13:00:00,
2013-03-04 08:06:00,22.4,18.0,30.09,NW,321,2.0,9.0,83,0.00,,,0.00,104,Wunderground v.1.15,2013-03-04 13:06:00,
2013-03-04 08:12:00,22.6,17.9,30.09,West,267,2.0,9.0,82,0.00,,,0.00,102,Wunderground v.1.15,2013-03-04 13:12:00,
2013-03-04 08:18:00,22.7,17.7,30.09,NW,319,3.0,9.0,81,0.00,,,0.00,123,Wunderground v.1.15,2013-03-04 13:18:00,
2013-03-04 08:24:00,23.0,18.0,30.10,NW,308,3.0,9.0,81,0.00,,,0.00,141,Wunderground v.1.15,2013-03-04 13:24:00,
2013-03-04 08:30:00,23.2,17.9,30.10,NW,325,4.0,9.0,80,0.00,,,0.00,153,Wunderground v.1.15,2013-03-04 13:30:00,
2013-03-04 08:36:00,23.4,18.1,30.10,WNW,282,4.0,9.0,80,0.00,,,0.00,139,Wunderground v.1.15,2013-03-04 13:36:00,
2013-03-04 08:42:00,23.5,17.9,30.10,NW,322,4.0,9.0,79,0.00,,,0.00,121,Wunderground v.1.15,2013-03-04 13:42:00,
2013-03-04 08:48:00,23.7,18.1,30.10,NW,309,4.0,9.0,79,0.00,,,0.00,130,Wunderground v.1.15,2013-03-04 13:48:00,
2013-03-04 08:54:00,23.8,18.5,30.10,WNW,302,4.0,9.0,80,0.00,,,0.00,144,Wunderground v.1.15,2013-03-04 13:54:00,
2013-03-04 09:00:00,23.9,18.6,30.10,NW,325,4.0,9.0,80,0.00,,,0.00,158,Wunderground v.1.15,2013-03-04 14:00:00,
2013-03-04 09:06:00,24.2,18.9,30.10,WNW,294,3.0,9.0,80,0.00,,,0.00,134,Wunderground v.1.15,2013-03-04 14:06:00,
2013-03-04 09:12:00,24.3,18.7,30.10,West,265,4.0,9.0,79,0.00,,,0.00,118,Wunderground v.1.15,2013-03-04 14:12:00,
2013-03-04 09:18:00,24.4,18.5,30.10,West,275,5.0,9.0,78,0.00,,,0.00,107,Wunderground v.1.15,2013-03-04 14:18:00,
2013-03-04 09:24:00,24.5,18.9,30.10,WNW,296,4.0,9.0,79,0.00,,,0.00,104,Wunderground v.1.15,2013-03-04 14:24:00,
2013-03-04 09:30:00,24.3,18.7,30.10,West,270,5.0,9.0,79,0.00,,,0.00,84,Wunderground v.1.15,2013-03-04 14:30:00,
2013-03-04 09:36:00,24.1,18.8,30.10,NW,325,6.0,9.0,80,0.00,,,0.00,81,Wunderground v.1.15,2013-03-04 14:36:00,
2013-03-04 09:42:00,23.9,18.9,30.11,NW,309,6.0,7.0,81,0.00,,,0.00,84,Wunderground v.1.15,2013-03-04 14:42:00,
2013-03-04 09:48:00,23.8,18.8,30.11,WSW,252,6.0,9.0,81,0.00,,,0.00,83,Wunderground v.1.15,2013-03-04 14:48:00,
2013-03-04 09:54:00,23.8,18.8,30.11,NW,323,4.0,9.0,81,0.00,,,0.00,86,Wunderground v.1.15,2013-03-04 14:54:00,
2013-03-04 10:00:00,23.7,18.4,30.12,NW,315,6.0,6.0,80,0.00,,,0.00,100,Wunderground v.1.15,2013-03-04 15:00:00,
2013-03-04 10:06:00,23.7,18.4,30.12,WNW,302,5.0,9.0,80,0.00,,,0.00,123,Wunderground v.1.15,2013-03-04 15:06:00,
2013-03-04 10:12:00,23.9,18.3,30.12,NW,325,4.0,9.0,79,0.00,,,0.00,153,Wunderground v.1.15,2013-03-04 15:12:00,
2013-03-04 10:18:00,24.2,18.3,30.12,WNW,300,5.0,9.0,78,0.00,,,0.00,151,Wunderground v.1.15,2013-03-04 15:18:00,
2013-03-04 10:24:00,24.4,18.2,30.12,NNW,331,4.0,9.0,77,0.00,,,0.00,142,Wunderground v.1.15,2013-03-04 15:24:00,
2013-03-04 10:30:00,24.5,18.0,30.11,NNE,24,4.0,4.0,76,0.00,,,0.00,158,Wunderground v.1.15,2013-03-04 15:30:00,
2013-03-04 10:36:00,24.4,17.9,30.12,West,279,6.0,15.0,76,0.00,,,0.00,169,Wunderground v.1.15,2013-03-04 15:36:00,
2013-03-04 10:42:00,24.3,17.8,30.12,WNW,285,7.0,9.0,76,0.00,,,0.00,179,Wunderground v.1.15,2013-03-04 15:42:00,
2013-03-04 10:48:00,24.5,18.0,30.12,NNW,332,5.0,9.0,76,0.00,,,0.00,190,Wunderground v.1.15,2013-03-04 15:48:00,
2013-03-04 10:54:00,24.6,17.8,30.12,WNW,302,5.0,10.0,75,0.00,,,0.00,185,Wunderground v.1.15,2013-03-04 15:54:00,
2013-03-04 11:00:00,24.7,17.9,30.12,NNW,333,5.0,9.0,75,0.00,,,0.00,181,Wunderground v.1.15,2013-03-04 16:00:00,
2013-03-04 11:06:00,24.5,17.7,30.12,NW,307,5.0,9.0,75,0.00,,,0.00,190,Wunderground v.1.15,2013-03-04 16:06:00,
2013-03-04 11:12:00,24.8,18.0,30.12,WNW,302,5.0,9.0,75,0.00,,,0.00,202,Wunderground v.1.15,2013-03-04 16:12:00,
2013-03-04 11:18:00,25.0,17.9,30.12,NNW,348,5.0,9.0,74,0.00,,,0.00,204,Wunderground v.1.15,2013-03-04 16:18:00,
2013-03-04 11:24:00,25.1,18.0,30.12,WNW,291,5.0,9.0,74,0.00,,,0.00,181,Wunderground v.1.15,2013-03-04 16:24:00,
2013-03-04 11:30:00,25.1,18.0,30.12,NW,318,7.0,7.0,74,0.00,,,0.00,165,Wunderground v.1.15,2013-03-04 16:30:00,
2013-03-04 11:36:00,25.0,17.9,30.12,WSW,255,8.0,9.0,74,0.00,,,0.00,167,Wunderground v.1.15,2013-03-04 16:36:00,
2013-03-04 11:42:00,25.0,17.9,30.12,WNW,290,7.0,9.0,74,0.00,,,0.00,183,Wunderground v.1.15,2013-03-04 16:42:00,
2013-03-04 11:48:00,25.2,18.1,30.12,West,263,6.0,12.0,74,0.00,,,0.00,186,Wunderground v.1.15,2013-03-04 16:48:00,
2013-03-04 11:54:00,25.4,18.3,30.11,NW,323,5.0,9.0,74,0.00,,,0.00,200,Wunderground v.1.15,2013-03-04 16:54:00,
2013-03-04 12:00:00,25.6,18.5,30.12,SW,229,4.0,9.0,74,0.00,,,0.00,216,Wunderground v.1.15,2013-03-04 17:00:00,
2013-03-04 12:06:00,25.7,17.9,30.12,West,272,6.0,9.0,72,0.00,,,0.00,250,Wunderground v.1.15,2013-03-04 17:06:00,
2013-03-04 12:12:00,26.0,17.9,30.11,WSW,257,5.0,9.0,71,0.00,,,0.00,258,Wunderground v.1.15,2013-03-04 17:12:00,
2013-03-04 12:18:00,26.3,18.2,30.11,West,281,6.0,9.0,71,0.00,,,0.00,225,Wunderground v.1.15,2013-03-04 17:18:00,
2013-03-04 12:24:00,26.3,18.2,30.11,NW,319,5.0,9.0,71,0.00,,,0.00,258,Wunderground v.1.15,2013-03-04 17:24:00,
2013-03-04 12:30:00,26.4,18.3,30.10,NW,306,6.0,6.0,71,0.00,,,0.00,237,Wunderground v.1.15,2013-03-04 17:30:00,
2013-03-04 12:36:00,26.7,18.6,30.10,WNW,299,5.0,9.0,71,0.00,,,0.00,257,Wunderground v.1.15,2013-03-04 17:36:00,
2013-03-04 12:42:00,26.8,18.3,30.10,WNW,286,4.0,9.0,70,0.00,,,0.00,225,Wunderground v.1.15,2013-03-04 17:42:00,
2013-03-04 12:48:00,26.9,18.7,30.10,WSW,257,4.0,9.0,71,0.00,,,0.00,211,Wunderground v.1.15,2013-03-04 17:48:00,
2013-03-04 12:54:00,27.0,18.8,30.10,NW,315,5.0,9.0,71,0.00,,,0.00,213,Wunderground v.1.15,2013-03-04 17:54:00,
2013-03-04 13:00:00,27.0,18.5,30.10,NW,307,5.0,10.0,70,0.00,,,0.00,216,Wunderground v.1.15,2013-03-04 18:00:00,
2013-03-04 13:06:00,26.9,18.7,30.10,West,279,7.0,14.0,71,0.00,,,0.00,234,Wunderground v.1.15,2013-03-04 18:06:00,
2013-03-04 13:12:00,26.8,18.7,30.10,West,277,8.0,9.0,71,0.00,,,0.00,248,Wunderground v.1.15,2013-03-04 18:12:00,
2013-03-04 13:18:00,27.0,18.8,30.09,WNW,299,7.0,9.0,71,0.00,,,0.00,244,Wunderground v.1.15,2013-03-04 18:18:00,
2013-03-04 13:24:00,27.0,18.8,30.10,WNW,285,7.0,9.0,71,0.00,,,0.00,230,Wunderground v.1.15,2013-03-04 18:24:00,
2013-03-04 13:30:00,27.1,18.9,30.09,WNW,293,7.0,7.0,71,0.00,,,0.00,239,Wunderground v.1.15,2013-03-04 18:30:00,
2013-03-04 13:32:00,27.1,18.9,30.09,West,270,7.0,9.0,71,0.00,,,0.00,241,Wunderground v.1.15,2013-03-04 18:32:00,
2013-03-04 13:38:00,27.2,19.0,30.09,WNW,290,7.0,10.0,71,0.00,,,0.00,225,Wunderground v.1.15,2013-03-04 18:38:00,
2013-03-04 13:40:00,27.2,19.4,30.09,WNW,288,7.0,11.0,72,0.00,,,0.00,202,Wunderground v.1.15,2013-03-04 18:40:00,
2013-03-04 13:46:00,27.0,18.8,30.09,NNW,327,7.0,11.0,71,0.00,,,0.00,199,Wunderground v.1.15,2013-03-04 18:46:00,
2013-03-04 13:48:00,27.1,19.3,30.09,NW,312,8.0,11.0,72,0.00,,,0.00,193,Wunderground v.1.15,2013-03-04 18:48:00,
2013-03-04 13:54:00,27.0,18.8,30.09,NW,313,7.0,9.0,71,0.00,,,0.00,171,Wunderground v.1.15,2013-03-04 18:54:00,
2013-03-04 14:00:00,27.1,19.3,30.10,West,278,7.0,7.0,72,0.00,,,0.00,179,Wunderground v.1.15,2013-03-04 19:00:00,
2013-03-04 14:06:00,27.3,19.5,30.09,WNW,301,6.0,9.0,72,0.00,,,0.00,206,Wunderground v.1.15,2013-03-04 19:06:00,
2013-03-04 14:12:00,27.5,19.0,30.09,WNW,287,5.0,6.0,70,0.00,,,0.00,237,Wunderground v.1.15,2013-03-04 19:12:00,
2013-03-04 14:18:00,27.5,19.0,30.09,North,5,5.0,9.0,70,0.00,,,0.00,250,Wunderground v.1.15,2013-03-04 19:18:00,
2013-03-04 14:24:00,27.7,18.8,30.09,NW,315,6.0,9.0,69,0.00,,,0.00,199,Wunderground v.1.15,2013-03-04 19:24:00,
2013-03-04 14:30:00,27.8,19.3,30.10,NNW,338,6.0,6.0,70,0.00,,,0.00,221,Wunderground v.1.15,2013-03-04 19:30:00,
2013-03-04 14:36:00,27.9,19.4,30.10,NW,304,6.0,9.0,70,0.00,,,0.00,211,Wunderground v.1.15,2013-03-04 19:36:00,
2013-03-04 14:42:00,27.9,19.0,30.10,SW,236,7.0,13.0,69,0.00,,,0.00,225,Wunderground v.1.15,2013-03-04 19:42:00,
2013-03-04 14:48:00,27.9,19.0,30.10,West,273,7.0,13.0,69,0.00,,,0.00,204,Wunderground v.1.15,2013-03-04 19:48:00,
2013-03-04 14:54:00,28.1,19.2,30.10,NNW,335,6.0,10.0,69,0.00,,,0.00,239,Wunderground v.1.15,2013-03-04 19:54:00,
2013-03-04 15:00:00,28.1,19.2,30.10,NW,313,7.0,7.0,69,0.00,,,0.00,218,Wunderground v.1.15,2013-03-04 20:00:00,
2013-03-04 15:06:00,28.3,19.1,30.10,WNW,302,5.0,9.0,68,0.00,,,0.00,209,Wunderground v.1.15,2013-03-04 20:06:00,
2013-03-04 15:12:00,28.2,19.0,30.10,WNW,298,6.0,11.0,68,0.00,,,0.00,223,Wunderground v.1.15,2013-03-04 20:12:00,
2013-03-04 15:18:00,28.4,19.2,30.10,NW,306,7.0,11.0,68,0.00,,,0.00,295,Wunderground v.1.15,2013-03-04 20:18:00,
2013-03-04 15:24:00,29.0,19.8,30.10,NNW,336,5.0,9.0,68,0.00,,,0.00,306,Wunderground v.1.15,2013-03-04 20:24:00,
2013-03-04 15:30:00,29.3,19.3,30.10,North,355,6.0,6.0,66,0.00,,,0.00,272,Wunderground v.1.15,2013-03-04 20:30:00,
2013-03-04 15:36:00,29.3,19.3,30.10,NNW,340,7.0,9.0,66,0.00,,,0.00,229,Wunderground v.1.15,2013-03-04 20:36:00,
2013-03-04 15:42:00,29.4,19.4,30.09,WSW,246,6.0,9.0,66,0.00,,,0.00,258,Wunderground v.1.15,2013-03-04 20:42:00,
2013-03-04 15:48:00,29.7,19.4,30.10,NNW,338,6.0,9.0,65,0.00,,,0.00,603,Wunderground v.1.15,2013-03-04 20:48:00,
2013-03-04 15:54:00,29.8,19.1,30.10,NNW,346,7.0,9.0,64,0.00,,,0.00,244,Wunderground v.1.15,2013-03-04 20:54:00,
2013-03-04 16:00:00,29.5,18.8,30.10,WNW,287,7.0,9.0,64,0.00,,,0.00,165,Wunderground v.1.15,2013-03-04 21:00:00,
2013-03-04 16:06:00,29.8,19.1,30.09,North,355,7.0,13.0,64,0.00,,,0.00,216,Wunderground v.1.15,2013-03-04 21:06:00,
2013-03-04 16:12:00,30.2,19.5,30.09,NNE,19,5.0,9.0,64,0.00,,,0.00,172,Wunderground v.1.15,2013-03-04 21:12:00,
2013-03-04 16:18:00,30.3,19.6,30.09,West,280,4.0,9.0,64,0.00,,,0.00,121,Wunderground v.1.15,2013-03-04 21:18:00,
2013-03-04 16:24:00,30.1,19.0,30.09,NNW,336,4.0,9.0,63,0.00,,,0.00,216,Wunderground v.1.15,2013-03-04 21:24:00,
2013-03-04 16:30:00,29.9,18.8,30.09,NNW,346,5.0,5.0,63,0.00,,,0.00,95,Wunderground v.1.15,2013-03-04 21:30:00,
2013-03-04 16:36:00,30.0,18.9,30.09,NW,309,6.0,9.0,63,0.00,,,0.00,76,Wunderground v.1.15,2013-03-04 21:36:00,
2013-03-04 16:42:00,29.9,18.8,30.09,NW,315,7.0,11.0,63,0.00,,,0.00,72,Wunderground v.1.15,2013-03-04 21:42:00,
2013-03-04 16:48:00,29.9,18.8,30.09,NNW,340,6.0,11.0,63,0.00,,,0.00,223,Wunderground v.1.15,2013-03-04 21:48:00,
2013-03-04 16:54:00,30.5,19.0,30.09,NNW,336,5.0,9.0,62,0.00,,,0.00,197,Wunderground v.1.15,2013-03-04 21:54:00,
2013-03-04 17:00:00,30.8,18.9,30.09,West,266,5.0,5.0,61,0.00,,,0.00,169,Wunderground v.1.15,2013-03-04 22:00:00,
2013-03-04 17:06:00,30.9,19.0,30.09,West,277,4.0,9.0,61,0.00,,,0.00,144,Wunderground v.1.15,2013-03-04 22:06:00,
2013-03-04 17:12:00,31.0,18.7,30.09,NW,323,4.0,9.0,60,0.00,,,0.00,120,Wunderground v.1.15,2013-03-04 22:12:00,
2013-03-04 17:18:00,31.1,19.2,30.09,NW,317,4.0,9.0,61,0.00,,,0.00,93,Wunderground v.1.15,2013-03-04 22:18:00,
2013-03-04 17:24:00,31.0,19.1,30.09,North,355,5.0,9.0,61,0.00,,,0.00,72,Wunderground v.1.15,2013-03-04 22:24:00,
2013-03-04 17:30:00,30.8,18.9,30.09,West,269,5.0,9.0,61,0.00,,,0.00,54,Wunderground v.1.15,2013-03-04 22:30:00,
2013-03-04 17:36:00,30.6,18.7,30.09,WNW,300,4.0,9.0,61,0.00,,,0.00,25,Wunderground v.1.15,2013-03-04 22:36:00,
2013-03-04 17:42:00,30.4,18.9,30.09,NNW,333,3.0,9.0,62,0.00,,,0.00,19,Wunderground v.1.15,2013-03-04 22:42:00,
2013-03-04 17:48:00,30.2,18.7,30.09,West,271,3.0,9.0,62,0.00,,,0.00,16,Wunderground v.1.15,2013-03-04 22:48:00,
2013-03-04 17:54:00,30.1,18.6,30.09,NNW,346,3.0,9.0,62,0.00,,,0.00,12,Wunderground v.1.15,2013-03-04 22:54:00,
2013-03-04 18:00:00,30.0,18.5,30.09,West,270,3.0,9.0,62,0.00,,,0.00,9,Wunderground v.1.15,2013-03-04 23:00:00,
2013-03-04 18:06:00,29.9,18.8,30.10,NNW,335,3.0,9.0,63,0.00,,,0.00,5,Wunderground v.1.15,2013-03-04 23:06:00,
2013-03-04 18:12:00,29.4,18.7,30.10,NNW,337,1.0,9.0,64,0.00,,,0.00,0,Wunderground v.1.15,2013-03-04 23:12:00,
2013-03-04 18:18:00,28.9,18.6,30.10,NW,311,1.0,9.0,65,0.00,,,0.00,0,Wunderground v.1.15,2013-03-04 23:18:00,
2013-03-04 18:24:00,28.9,18.6,30.10,NW,322,1.0,9.0,65,0.00,,,0.00,0,Wunderground v.1.15,2013-03-04 23:24:00,
2013-03-04 18:30:00,28.4,18.5,30.10,WNW,287,1.0,1.0,66,0.00,,,0.00,0,Wunderground v.1.15,2013-03-04 23:30:00,
2013-03-04 18:36:00,27.9,18.7,30.10,WNW,287,0.0,9.0,68,0.00,,,0.00,0,Wunderground v.1.15,2013-03-04 23:36:00,
2013-03-04 18:42:00,27.6,18.8,30.11,WNW,287,0.0,9.0,69,0.00,,,0.00,0,Wunderground v.1.15,2013-03-04 23:42:00,
2013-03-04 18:48:00,26.9,18.7,30.11,WNW,287,0.0,9.0,71,0.00,,,0.00,0,Wunderground v.1.15,2013-03-04 23:48:00,
2013-03-04 18:54:00,26.3,18.5,30.11,WNW,287,0.0,9.0,72,0.00,,,0.00,0,Wunderground v.1.15,2013-03-04 23:54:00,
2013-03-04 19:00:00,25.6,18.1,30.11,WNW,287,0.0,9.0,73,0.00,,,0.00,0,Wunderground v.1.15,2013-03-05 00:00:00,
2013-03-04 19:06:00,25.0,18.2,30.11,WNW,287,0.0,9.0,75,0.00,,,0.00,0,Wunderground v.1.15,2013-03-05 00:06:00,
2013-03-04 19:12:00,24.9,17.8,30.11,WNW,287,0.0,9.0,74,0.00,,,0.00,0,Wunderground v.1.15,2013-03-05 00:12:00,
2013-03-04 19:18:00,24.9,18.1,30.11,NW,323,0.0,9.0,75,0.00,,,0.00,0,Wunderground v.1.15,2013-03-05 00:18:00,
2013-03-04 19:24:00,25.6,18.5,30.11,WNW,303,1.0,9.0,74,0.00,,,0.00,0,Wunderground v.1.15,2013-03-05 00:24:00,
2013-03-04 19:30:00,25.6,18.8,30.12,WNW,288,1.0,9.0,75,0.00,,,0.00,0,Wunderground v.1.15,2013-03-05 00:30:00,
2013-03-04 19:36:00,25.1,18.3,30.12,WNW,288,0.0,9.0,75,0.00,,,0.00,0,Wunderground v.1.15,2013-03-05 00:36:00,
2013-03-04 19:42:00,24.2,18.0,30.12,WNW,288,0.0,9.0,77,0.00,,,0.00,0,Wunderground v.1.15,2013-03-05 00:42:00,
2013-03-04 19:48:00,24.4,18.2,30.12,West,281,0.0,9.0,77,0.00,,,0.00,0,Wunderground v.1.15,2013-03-05 00:48:00,
2013-03-04 19:54:00,24.4,18.2,30.12,West,272,0.0,9.0,77,0.00,,,0.00,0,Wunderground v.1.15,2013-03-05 00:54:00,
2013-03-04 20:00:00,23.7,18.1,30.12,West,272,0.0,9.0,79,0.00,,,0.00,0,Wunderground v.1.15,2013-03-05 01:00:00,
2013-03-04 20:06:00,23.5,18.2,30.12,West,272,0.0,9.0,80,0.00,,,0.00,0,Wunderground v.1.15,2013-03-05 01:06:00,
2013-03-04 20:12:00,23.1,17.8,30.12,West,272,0.0,9.0,80,0.00,,,0.00,0,Wunderground v.1.15,2013-03-05 01:12:00,
2013-03-04 20:18:00,22.1,17.4,30.12,West,272,0.0,9.0,82,0.00,,,0.00,0,Wunderground v.1.15,2013-03-05 01:18:00,
2013-03-04 20:24:00,22.0,17.3,30.12,West,272,0.0,9.0,82,0.00,,,0.00,0,Wunderground v.1.15,2013-03-05 01:24:00,
2013-03-04 20:30:00,21.8,17.4,30.12,NW,315,1.0,1.0,83,0.00,,,0.00,0,Wunderground v.1.15,2013-03-05 01:30:00,
2013-03-04 20:36:00,21.9,17.2,30.13,NW,315,1.0,9.0,82,0.00,,,0.00,0,Wunderground v.1.15,2013-03-05 01:36:00,
2013-03-04 20:42:00,21.3,16.9,30.13,NW,315,0.0,9.0,83,0.00,,,0.00,0,Wunderground v.1.15,2013-03-05 01:42:00,
2013-03-04 20:48:00,21.3,16.9,30.13,NW,310,0.0,9.0,83,0.00,,,0.00,0,Wunderground v.1.15,2013-03-05 01:48:00,
2013-03-04 20:54:00,20.9,16.8,30.13,NW,310,0.0,9.0,84,0.00,,,0.00,0,Wunderground v.1.15,2013-03-05 01:54:00,
2013-03-04 21:00:00,20.4,16.6,30.13,WSW,257,0.0,9.0,85,0.00,,,0.00,0,Wunderground v.1.15,2013-03-05 02:00:00,
2013-03-04 21:06:00,20.0,16.2,30.13,WSW,257,0.0,9.0,85,0.00,,,0.00,0,Wunderground v.1.15,2013-03-05 02:06:00,
2013-03-04 21:12:00,19.6,16.1,30.13,WSW,257,0.0,9.0,86,0.00,,,0.00,0,Wunderground v.1.15,2013-03-05 02:12:00,
2013-03-04 21:18:00,19.5,16.3,30.14,West,260,0.0,9.0,87,0.00,,,0.00,0,Wunderground v.1.15,2013-03-05 02:18:00,
2013-03-04 21:24:00,19.1,15.6,30.14,West,260,0.0,9.0,86,0.00,,,0.00,0,Wunderground v.1.15,2013-03-05 02:24:00,
2013-03-04 21:30:00,19.0,15.8,30.14,West,260,0.0,9.0,87,0.00,,,0.00,0,Wunderground v.1.15,2013-03-05 02:30:00,
2013-03-04 21:36:00,19.0,15.8,30.14,West,260,0.0,9.0,87,0.00,,,0.00,0,Wunderground v.1.15,2013-03-05 02:36:00,
2013-03-04 21:42:00,18.8,15.8,30.14,West,260,0.0,9.0,88,0.00,,,0.00,0,Wunderground v.1.15,2013-03-05 02:42:00,
2013-03-04 21:48:00,18.7,15.7,30.14,West,260,0.0,9.0,88,0.00,,,0.00,0,Wunderground v.1.15,2013-03-05 02:48:00,
2013-03-04 21:54:00,18.7,15.7,30.14,West,260,0.0,9.0,88,0.00,,,0.00,0,Wunderground v.1.15,2013-03-05 02:54:00,
2013-03-04 22:00:00,18.5,15.5,30.15,West,260,0.0,9.0,88,0.00,,,0.00,0,Wunderground v.1.15,2013-03-05 03:00:00,
2013-03-04 22:06:00,18.1,15.1,30.15,West,260,0.0,9.0,88,0.00,,,0.00,0,Wunderground v.1.15,2013-03-05 03:06:00,
2013-03-04 22:12:00,17.9,14.9,30.15,West,260,0.0,9.0,88,0.00,,,0.00,0,Wunderground v.1.15,2013-03-05 03:12:00,
2013-03-04 22:18:00,17.5,14.6,30.14,West,260,0.0,9.0,88,0.00,,,0.00,0,Wunderground v.1.15,2013-03-05 03:18:00,
2013-03-04 22:24:00,17.4,14.7,30.15,West,260,0.0,9.0,89,0.00,,,0.00,0,Wunderground v.1.15,2013-03-05 03:24:00,
2013-03-04 22:30:00,17.3,14.6,30.15,West,260,0.0,9.0,89,0.00,,,0.00,0,Wunderground v.1.15,2013-03-05 03:30:00,
2013-03-04 22:36:00,17.1,14.4,30.15,West,260,0.0,9.0,89,0.00,,,0.00,0,Wunderground v.1.15,2013-03-05 03:36:00,
2013-03-04 22:42:00,16.9,14.5,30.15,West,260,0.0,9.0,90,0.00,,,0.00,0,Wunderground v.1.15,2013-03-05 03:42:00,
2013-03-04 22:48:00,16.7,14.3,30.15,West,260,0.0,9.0,90,0.00,,,0.00,0,Wunderground v.1.15,2013-03-05 03:48:00,
2013-03-04 22:54:00,16.4,14.0,30.15,West,260,0.0,9.0,90,0.00,,,0.00,0,Wunderground v.1.15,2013-03-05 03:54:00,
2013-03-04 23:00:00,16.1,13.7,30.15,West,260,0.0,9.0,90,0.00,,,0.00,0,Wunderground v.1.15,2013-03-05 04:00:00,
2013-03-04 23:06:00,15.9,13.5,30.15,West,260,0.0,9.0,90,0.00,,,0.00,0,Wunderground v.1.15,2013-03-05 04:06:00,
2013-03-04 23:12:00,15.7,13.5,30.15,West,260,0.0,9.0,91,0.00,,,0.00,0,Wunderground v.1.15,2013-03-05 04:12:00,
2013-03-04 23:18:00,15.6,13.4,30.15,West,260,0.0,9.0,91,0.00,,,0.00,0,Wunderground v.1.15,2013-03-05 04:18:00,
2013-03-04 23:24:00,15.6,13.4,30.15,West,260,0.0,9.0,91,0.00,,,0.00,0,Wunderground v.1.15,2013-03-05 04:24:00,
2013-03-04 23:30:00,15.4,13.2,30.15,West,260,0.0,9.0,91,0.00,,,0.00,0,Wunderground v.1.15,2013-03-05 04:30:00,
2013-03-04 23:36:00,15.2,13.0,30.15,West,260,0.0,9.0,91,0.00,,,0.00,0,Wunderground v.1.15,2013-03-05 04:36:00,
2013-03-04 23:42:00,15.4,13.5,30.15,West,260,0.0,9.0,92,0.00,,,0.00,0,Wunderground v.1.15,2013-03-05 04:42:00,
2013-03-04 23:48:00,15.3,13.4,30.16,West,261,0.0,9.0,92,0.00,,,0.00,0,Wunderground v.1.15,2013-03-05 04:48:00,
2013-03-04 23:54:00,15.3,13.4,30.15,WNW,282,0.0,9.0,92,0.00,,,0.00,0,Wunderground v.1.15,2013-03-05 04:54:00,